User: anonymous   Login
Location: Unspecified
(0.0000°N, 0.0000°E)
Time: 17:11:45
(UTC+00:00)
Language:

RISAT 1 - Orbit

View from above orbital plane
View from above orbital plane
View from above satellite
View from above satellite

Ground track
Ground track

The orbit data is extracted from the following two-line orbital elements,

1 38248U 12017A   16275.07895758  .00000731  00000-0  50269-4 0  9993
2 38248  97.5641 280.1953 0004215 191.1656 254.4842 15.08960595244162
Epoch (UTC): 01 October 2016 01:53:41
Eccentricity: 0.0004215
inclination: 97.5641°
perigee height: 536 km
apogee height: 542 km
right ascension of ascending node: 280.1953°
argument of perigee: 191.1656°
revolutions per day: 15.08960595
mean anomaly at epoch: 254.4842°
orbit number at epoch: 24416

The dashed part of the orbit path shows where the satellite is in the earth's shadow,  

DLR